TimeEDT,TemperatureF,Dew PointF,Humidity,Sea Level PressureIn,VisibilityMPH,Wind Direction,Wind SpeedMPH,Gust SpeedMPH,PrecipitationIn,Events,Conditions,WindDirDegrees,DateUTC
12:21 AM,44.6,44.6,100,30.16,2.5,NNE,4.6,-,N/A,,Clear,20,2013-10-11 04:21:00
12:22 AM,44.6,44.6,100,30.16,1.8,NNE,4.6,-,N/A,,Clear,20,2013-10-11 04:22:00
12:23 AM,42.8,42.8,100,30.16,1.2,NNE,4.6,-,N/A,,Clear,20,2013-10-11 04:23:00
12:24 AM,42.8,42.8,100,30.16,1.0,NNE,4.6,-,N/A,,Clear,20,2013-10-11 04:24:00
12:25 AM,42.8,42.8,100,30.16,1.0,NNE,4.6,-,N/A,,Clear,20,2013-10-11 04:25:00
12:26 AM,42.8,42.8,100,30.16,0.8,NNE,4.6,-,N/A,,Clear,20,2013-10-11 04:26:00
12:27 AM,42.8,42.8,100,30.16,0.8,NNE,4.6,-,N/A,,Clear,20,2013-10-11 04:27:00
12:29 AM,42.8,42.8,100,30.16,0.5,NNE,4.6,-,N/A,Fog,Fog,30,2013-10-11 04:29:00
12:37 AM,42.8,42.8,100,30.16,0.8,NE,4.6,-,N/A,,Clear,40,2013-10-11 04:37:00
12:39 AM,42.8,42.8,100,30.16,0.8,NE,3.5,-,N/A,,Clear,50,2013-10-11 04:39:00
12:40 AM,44.6,42.8,93,30.16,0.8,NE,4.6,-,N/A,,Clear,50,2013-10-11 04:40:00
12:41 AM,44.6,42.8,93,30.16,1.0,NE,4.6,-,N/A,,Clear,40,2013-10-11 04:41:00
12:42 AM,44.6,42.8,93,30.16,1.2,NE,4.6,-,N/A,,Clear,40,2013-10-11 04:42:00
12:43 AM,44.6,42.8,93,30.16,1.8,NE,4.6,-,N/A,,Clear,40,2013-10-11 04:43:00
12:44 AM,44.6,44.6,100,30.16,2.0,NE,4.6,-,N/A,,Clear,40,2013-10-11 04:44:00
12:45 AM,44.6,44.6,100,30.16,3.0,NNE,4.6,-,N/A,,Clear,30,2013-10-11 04:45:00
12:58 AM,44.1,43.7,99,30.18,10.0,NNE,3.5,-,N/A,,Partly Cloudy,30,2013-10-11 04:58:00
1:58 AM,43.2,42.8,99,30.17,10.0,NNE,5.8,-,N/A,,Mostly Cloudy,30,2013-10-11 05:58:00
2:58 AM,44.4,44.1,99,30.15,10.0,NE,6.9,-,N/A,,Partly Cloudy,40,2013-10-11 06:58:00
3:58 AM,43.5,43.2,99,30.15,10.0,NE,4.6,-,N/A,,Mostly Cloudy,50,2013-10-11 07:58:00
4:58 AM,41.4,41.2,99,30.15,5.0,NE,4.6,-,N/A,,Clear,40,2013-10-11 08:58:00
5:58 AM,42.6,42.4,99,30.15,9.0,North,5.8,-,N/A,,Clear,10,2013-10-11 09:58:00
6:58 AM,42.4,42.3,99,30.15,10.0,NNE,5.8,-,N/A,,Partly Cloudy,20,2013-10-11 10:58:00
7:58 AM,44.1,43.9,99,30.16,10.0,North,2.3,-,N/A,,Clear,360,2013-10-11 11:58:00
8:58 AM,50.4,50.2,99,30.17,10.0,NNE,4.6,-,N/A,,Partly Cloudy,20,2013-10-11 12:58:00
9:58 AM,57.9,51.8,80,30.16,10.0,North,6.9,-,N/A,,Clear,360,2013-10-11 13:58:00
10:53 AM,64.4,53.6,68,30.13,10.0,Variable,6.9,-,N/A,,Clear,0,2013-10-11 14:53:00
10:58 AM,63.9,53.2,68,30.15,10.0,NNW,10.4,-,0.00,,Light Drizzle,340,2013-10-11 14:58:00
11:58 AM,67.5,54.5,63,30.15,10.0,Variable,4.6,-,N/A,,Clear,0,2013-10-11 15:58:00
12:58 PM,70.5,55.0,58,30.13,10.0,NE,6.9,-,N/A,,Clear,40,2013-10-11 16:58:00
1:58 PM,71.8,55.2,56,30.11,10.0,NNE,10.4,-,N/A,,Clear,20,2013-10-11 17:58:00
2:58 PM,71.2,53.1,53,30.09,10.0,NNW,8.1,-,N/A,,Clear,330,2013-10-11 18:58:00
3:58 PM,69.8,48.4,46,30.10,10.0,NNW,5.8,-,N/A,,Clear,330,2013-10-11 19:58:00
4:58 PM,68.0,49.1,51,30.10,10.0,NNE,6.9,-,N/A,,Clear,30,2013-10-11 20:58:00
5:58 PM,65.1,42.1,43,30.11,10.0,East,3.5,-,N/A,,Mostly Cloudy,80,2013-10-11 21:58:00
6:58 PM,54.9,46.4,73,30.13,10.0,NE,4.6,-,N/A,,Mostly Cloudy,40,2013-10-11 22:58:00
7:58 PM,52.7,48.6,86,30.14,10.0,NNE,4.6,-,N/A,,Scattered Clouds,20,2013-10-11 23:58:00
8:58 PM,52.0,47.8,86,30.15,10.0,NE,3.5,-,N/A,,Overcast,40,2013-10-12 00:58:00
9:58 PM,50.4,47.7,90,30.17,10.0,NNE,2.3,-,N/A,,Mostly Cloudy,20,2013-10-12 01:58:00
10:58 PM,48.2,47.7,98,30.17,10.0,NNE,3.5,-,N/A,,Overcast,30,2013-10-12 02:58:00
11:58 PM,48.4,47.8,98,30.16,10.0,NNE,2.3,-,N/A,,Overcast,30,2013-10-12 03:58:00